GW3287 Weather Reports


Display with metric or nautical units.
time (UTC)temp
F
wind
direction
speed
MPH
gust
MPH
rain 1hr
in
rain 24hr
in
rain mn
in
humidity
%
barometer
mb
20260906132956 68 94 2.0 7.0 0.00 0.00 0.00 91 1020.6
20260906132458 67 117 1.0 6.0 0.00 0.00 0.00 91 1020.6
20260906131957 67 72 1.0 5.0 0.00 0.00 0.00 92 1020.5
20260906130959 66 103 2.0 6.0 0.00 0.00 0.00 92 1020.3
20260906125958 66 100 1.0 4.0 0.00 0.00 0.00 92 1020.2
20260906125456 65 126 1.0 6.0 0.00 0.00 0.00 92 1020.1
20260906124958 65 128 1.0 6.0 0.00 0.00 0.00 92 1019.9
20260906124456 65 99 0.0 0.0 0.00 0.00 0.00 92 1019.9
20260906123500 64 15 0.0 0.0 0.00 0.00 0.00 92 1019.9
20260906122957 64 15 0.0 0.0 0.00 0.00 0.00 92 1020.0
20260906122457 64 15 0.0 0.0 0.00 0.00 0.00 92 1019.9
20260906121459 64 15 0.0 0.0 0.00 0.00 0.00 91 1019.9
20260906120957 64 15 0.0 0.0 0.00 0.00 0.00 91 1019.9
20260906120456 64 15 0.0 0.0 0.00 0.00 0.00 91 1019.7
20260906120001 64 15 0.0 0.0 0.00 0.00 0.00 91 1019.6
20260906115457 64 15 0.0 0.0 0.00 0.00 0.00 92 1019.5
20260906114957 64 15 0.0 0.0 0.00 0.00 0.00 92 1019.5
20260906114456 64 15 0.0 0.0 0.00 0.00 0.00 92 1019.5
20260906113958 64 15 0.0 0.0 0.00 0.00 0.00 91 1019.5
20260906113456 64 15 0.0 0.0 0.00 0.00 0.00 91 1019.2
20260906112957 64 15 0.0 0.0 0.00 0.00 0.00 91 1019.0
20260906112457 64 15 0.0 0.0 0.00 0.00 0.00 91 1019.0
20260906110957 65 15 0.0 0.0 0.00 0.00 0.00 91 1019.0
20260906110456 65 15 0.0 0.0 0.00 0.00 0.00 91 1018.8
20260906110001 65 15 0.0 0.0 0.00 0.00 0.00 91 1018.9
20260906105456 65 15 0.0 0.0 0.00 0.00 0.00 91 1018.9
20260906104956 65 5 0.0 0.0 0.00 0.00 0.00 91 1019.0
20260906103958 65 9 0.0 0.0 0.00 0.00 0.00 91 1018.9
20260906103456 65 324 0.0 0.0 0.00 0.00 0.00 91 1019.0
20260906102956 65 324 0.0 0.0 0.00 0.00 0.00 91 1019.1
20260906101959 65 324 0.0 0.0 0.00 0.00 0.00 91 1018.9
20260906101456 65 324 0.0 0.0 0.00 0.00 0.00 91 1018.8
20260906100955 65 324 0.0 0.0 0.00 0.00 0.00 91 1018.8
20260906100456 64 324 0.0 0.0 0.00 0.00 0.00 91 1018.8
20260906100000 64 324 0.0 0.0 0.00 0.00 0.00 91 1018.8
20260906095456 64 324 0.0 0.0 0.00 0.00 0.00 91 1018.8
20260906094959 64 324 0.0 0.0 0.00 0.00 0.00 91 1018.8
20260906093956 64 324 0.0 0.0 0.00 0.00 0.00 91 1018.7
20260906093456 64 324 0.0 0.0 0.00 0.00 0.00 91 1018.7
20260906092959 64 324 0.0 0.0 0.00 0.00 0.00 91 1018.6
20260906092456 64 324 0.0 0.0 0.00 0.00 0.00 91 1018.6
20260906091956 64 324 0.0 0.0 0.00 0.00 0.00 91 1018.6
20260906090959 64 324 0.0 0.0 0.00 0.00 0.00 91 1018.6
20260906090456 64 324 0.0 0.0 0.00 0.00 0.00 91 1018.7
20260906085959 64 324 0.0 0.0 0.00 0.00 0.00 91 1018.7
20260906084956 65 324 0.0 0.0 0.00 0.00 0.00 91 1018.7
20260906084456 65 324 0.0 0.0 0.00 0.00 0.00 91 1018.7
20260906083958 65 324 0.0 0.0 0.00 0.00 0.00 91 1018.7
20260906082957 65 324 0.0 0.0 0.00 0.00 0.00 91 1018.5
20260906082456 65 324 0.0 0.0 0.00 0.00 0.00 91 1018.5
20260906081957 65 324 0.0 0.0 0.00 0.00 0.00 91 1018.5
20260906081459 65 324 0.0 0.0 0.00 0.00 0.00 91 1018.5
20260906080956 65 324 0.0 0.0 0.00 0.00 0.00 91 1018.6
20260906080456 65 324 0.0 0.0 0.00 0.00 0.00 91 1018.5
20260906075958 65 324 0.0 0.0 0.00 0.00 0.00 91 1018.5
20260906075459 65 324 0.0 0.0 0.00 0.00 0.00 91 1018.5
20260906074956 65 324 0.0 0.0 0.00 0.00 0.00 91 1018.5
20260906074456 65 324 0.0 0.0 0.00 0.00 0.00 91 1018.5
20260906073957 65 324 0.0 0.0 0.00 0.00 0.00 91 1018.4
20260906073459 65 324 0.0 0.0 0.00 0.00 0.00 91 1018.3
20260906072956 65 324 0.0 0.0 0.00 0.00 0.00 91 1018.2
20260906072455 65 324 0.0 0.0 0.00 0.00 0.00 91 1018.2
20260906070955 65 324 0.0 0.0 0.00 0.00 0.00 91 1018.3
20260906070456 65 324 0.0 0.0 0.00 0.00 0.00 91 1018.2
20260906070000 65 324 0.0 0.0 0.00 0.00 0.00 91 1018.3
20260906065455 65 324 0.0 0.0 0.00 0.00 0.00 91 1018.3
20260906064955 65 341 0.0 0.0 0.00 0.00 0.00 91 1018.5
20260906064455 65 341 0.0 0.0 0.00 0.00 0.00 91 1018.5
20260906063958 65 341 0.0 0.0 0.00 0.00 0.00 91 1018.5
20260906063455 65 341 0.0 0.0 0.00 0.00 0.00 91 1018.5
20260906062955 65 341 0.0 0.0 0.00 0.00 0.00 91 1018.5
20260906062455 65 341 0.0 0.0 0.00 0.00 0.00 91 1018.5
20260906061957 65 341 0.0 0.0 0.00 0.00 0.00 91 1018.5
20260906061455 65 341 0.0 0.0 0.00 0.00 0.00 90 1018.5
20260906060458 65 341 0.0 0.0 0.00 0.00 0.00 90 1018.5
20260906055958 65 341 0.0 0.0 0.00 0.00 0.00 90 1018.4
20260906055456 65 341 0.0 0.0 0.00 0.00 0.00 90 1018.3
20260906054958 65 341 0.0 0.0 0.00 0.00 0.00 90 1018.3
20260906054456 65 341 0.0 0.0 0.00 0.00 0.00 90 1018.4
20260906053456 65 341 0.0 0.0 0.00 0.00 0.00 90 1018.4
20260906052958 65 341 0.0 0.0 0.00 0.00 0.00 90 1018.4
20260906052456 66 341 0.0 0.0 0.00 0.00 0.00 90 1018.4
20260906051956 66 341 0.0 0.0 0.00 0.00 0.00 90 1018.3
20260906051456 66 341 0.0 0.0 0.00 0.00 0.00 90 1018.3
20260906050959 66 315 0.0 0.0 0.00 0.00 0.00 90 1018.3
20260906050456 66 360 0.0 0.0 0.00 0.00 0.00 90 1018.3
20260906050005 66 344 0.0 0.0 0.00 0.00 0.00 90 1018.3
20260906045458 66 344 0.0 0.0 0.00 0.00 0.00 89 1018.3
20260906044958 66 344 0.0 0.0 0.00 0.00 0.00 89 1018.4
20260906043458 66 344 0.0 2.0 0.00 0.00 0.00 89 1018.1
20260906042458 66 5 0.0 0.0 0.00 0.00 0.00 89 1017.9
20260906041958 66 9 0.0 1.0 0.00 0.00 0.00 89 1017.9
20260906041458 66 9 0.0 1.0 0.00 0.00 0.00 89 1017.8
20260906041001 67 5 0.0 1.0 0.00 0.00 0.00 88 1017.7
20260906040459 67 14 0.0 2.0 0.00 0.00 0.00 88 1017.7
20260906035458 67 24 0.0 2.0 0.00 0.00 0.00 88 1017.8
20260906035001 67 24 0.0 2.0 0.00 0.00 0.00 88 1017.9
20260906034457 67 35 0.0 4.0 0.00 0.00 0.00 88 1017.9
20260906033958 67 53 1.0 4.0 0.00 0.00 0.00 88 1018.0
20260906033001 67 360 1.0 4.0 0.00 0.00 0.00 87 1017.8
20260906032458 67 49 1.0 5.0 0.00 0.00 0.00 87 1017.8
20260906031958 67 21 1.0 5.0 0.00 0.00 0.00 87 1017.7
20260906031457 67 40 0.0 4.0 0.00 0.00 0.00 87 1017.8
20260906025501 68 78 2.0 6.0 0.00 0.00 0.00 87 1017.8
20260906024958 68 55 2.0 6.0 0.00 0.00 0.00 86 1017.8
20260906024458 68 22 2.0 6.0 0.00 0.00 0.00 86 1017.6
20260906023957 68 30 2.0 6.0 0.00 0.00 0.00 86 1017.6
20260906023500 68 23 3.0 7.0 0.00 0.00 0.00 86 1017.6
20260906022958 68 25 3.0 9.0 0.00 0.00 0.00 86 1017.5
20260906022457 68 14 2.0 9.0 0.00 0.00 0.00 86 1017.5
20260906021958 68 34 2.0 8.0 0.00 0.00 0.00 86 1017.5
20260906020457 69 39 2.0 9.0 0.00 0.00 0.00 86 1017.6
20260906020001 69 28 1.0 8.0 0.00 0.00 0.00 86 1017.6
20260906015501 69 37 1.0 5.0 0.00 0.00 0.00 85 1017.5
20260906014958 69 5 1.0 5.0 0.00 0.00 0.00 85 1017.5
20260906014458 69 34 1.0 4.0 0.00 0.00 0.00 85 1017.7
20260906013958 69 23 1.0 5.0 0.00 0.00 0.00 85 1017.6
20260906013501 69 27 1.0 6.0 0.00 0.00 0.00 85 1017.6
20260906012959 69 40 1.0 4.0 0.00 0.00 0.00 85 1017.5
20260906012459 69 34 1.0 5.0 0.00 0.00 0.00 85 1017.5
20260906012001 70 25 1.0 5.0 0.00 0.00 0.00 85 1017.5
20260906011458 70 22 1.0 5.0 0.00 0.00 0.00 85 1017.5
20260906010958 70 30 1.0 5.0 0.00 0.00 0.00 85 1017.6
20260906010002 70 360 2.0 8.0 0.00 0.00 0.00 85 1017.6
20260906005458 70 19 2.0 9.0 0.00 0.00 0.00 85 1017.5
20260906004958 70 77 1.0 9.0 0.00 0.00 0.00 85 1017.4
20260906003458 70 38 1.0 6.0 0.00 0.00 0.00 86 1017.3
20260906002957 71 31 1.0 6.0 0.00 0.00 0.00 86 1017.3
20260906002500 71 49 1.0 5.0 0.00 0.00 0.00 86 1017.3
20260906001958 71 32 2.0 8.0 0.00 0.00 0.00 86 1017.3
20260906001457 71 17 3.0 9.0 0.00 0.00 0.00 86 1017.4
20260906001000 71 132 2.0 10.0 0.00 0.00 0.00 86 1017.4
20260906000458 71 36 2.0 8.0 0.00 0.00 0.00 86 1017.3
20260906000000 71 104 1.0 8.0 0.00 0.00 0.00 86 1017.3
20260905235500 71 355 2.0 9.0 0.00 0.00 0.00 86 1017.5
20260905234958 71 17 2.0 9.0 0.00 0.00 0.00 86 1017.5
20260905234458 71 28 2.0 8.0 0.00 0.00 0.00 86 1017.4
20260905233957 71 9 3.0 9.0 0.00 0.00 0.00 86 1017.5
20260905233501 71 17 2.0 9.0 0.00 0.00 0.00 86 1017.5
20260905232958 71 355 2.0 9.0 0.00 0.00 0.00 86 1017.5
20260905232458 71 21 3.0 9.0 0.00 0.00 0.00 86 1017.3
20260905231958 71 40 3.0 10.0 0.00 0.00 0.00 86 1017.4
20260905231459 71 27 3.0 10.0 0.00 0.00 0.00 86 1017.4
20260905230958 71 27 2.0 9.0 0.00 0.00 0.00 86 1017.4
20260905230458 72 52 2.0 8.0 0.00 0.00 0.00 86 1017.4
20260905230001 72 17 1.0 8.0 0.00 0.00 0.00 85 1017.4
20260905225458 72 30 2.0 8.0 0.00 0.00 0.00 85 1017.5
20260905225001 72 355 4.0 10.0 0.00 0.00 0.00 85 1017.4
20260905224457 72 17 3.0 10.0 0.00 0.00 0.00 85 1017.4
20260905223958 72 90 3.0 9.0 0.00 0.00 0.00 84 1017.4
20260905223458 72 15 3.0 9.0 0.00 0.00 0.00 84 1017.4
20260905223001 73 43 1.0 9.0 0.00 0.00 0.00 84 1017.2
20260905222458 73 85 3.0 13.0 0.00 0.00 0.00 84 1017.1
20260905221958 73 22 4.0 13.0 0.00 0.00 0.00 84 1017.1
20260905221458 73 340 3.0 12.0 0.00 0.00 0.00 83 1017.0
20260905221000 73 55 3.0 12.0 0.00 0.00 0.00 83 1016.9
20260905220458 73 15 3.0 13.0 0.00 0.00 0.00 83 1016.8
20260905215959 74 338 2.0 13.0 0.00 0.00 0.00 83 1016.9
20260905215500 74 337 2.0 12.0 0.00 0.00 0.00 83 1016.7
20260905213958 74 88 4.0 11.0 0.00 0.00 0.00 82 1016.7
20260905213500 74 38 5.0 14.0 0.00 0.00 0.00 82 1016.7
20260905212958 74 44 4.0 12.0 0.00 0.00 0.00 81 1016.6
20260905212457 75 64 3.0 13.0 0.00 0.00 0.00 81 1016.7
20260905211958 75 355 4.0 13.0 0.00 0.00 0.00 80 1016.7
20260905211500 75 56 4.0 10.0 0.00 0.00 0.00 79 1016.7
20260905210958 76 16 4.0 10.0 0.00 0.00 0.00 79 1016.5
20260905210457 76 39 3.0 10.0 0.00 0.00 0.00 79 1016.4
20260905210000 76 19 3.0 10.0 0.00 0.00 0.00 78 1016.4
20260905205501 77 40 3.0 10.0 0.00 0.00 0.00 78 1016.6
20260905204958 77 71 3.0 10.0 0.00 0.00 0.00 76 1016.6
20260905204457 78 53 3.0 11.0 0.00 0.00 0.00 76 1016.5
20260905203957 78 48 4.0 11.0 0.00 0.00 0.00 76 1016.5
20260905203458 79 54 3.0 10.0 0.00 0.00 0.00 76 1016.4
20260905202957 79 32 3.0 10.0 0.00 0.00 0.00 77 1016.4
20260905202458 79 31 3.0 9.0 0.00 0.00 0.00 77 1016.3
20260905202001 78 80 3.0 9.0 0.00 0.00 0.00 78 1016.3
20260905201458 78 17 3.0 12.0 0.00 0.00 0.00 77 1016.4
20260905200958 78 34 3.0 12.0 0.00 0.00 0.00 78 1016.4
20260905200458 78 67 3.0 9.0 0.00 0.00 0.00 78 1016.3
20260905200002 78 76 3.0 9.0 0.00 0.00 0.00 78 1016.3
20260905195456 78 5 4.0 11.0 0.00 0.00 0.00 79 1016.4
20260905194957 77 28 4.0 13.0 0.00 0.00 0.00 80 1016.5
20260905194457 77 5 3.0 11.0 0.00 0.00 0.00 79 1016.6
20260905193457 78 46 3.0 11.0 0.00 0.00 0.00 79 1016.5
20260905192956 78 21 4.0 12.0 0.00 0.00 0.00 79 1016.4
20260905192458 78 327 4.0 9.0 0.00 0.00 0.00 79 1016.4
20260905191958 78 333 4.0 14.0 0.00 0.00 0.00 78 1016.4
20260905191458 79 9 4.0 13.0 0.00 0.00 0.00 79 1016.4
20260905191000 79 37 4.0 13.0 0.00 0.00 0.00 79 1016.4
20260905190458 79 29 4.0 12.0 0.00 0.00 0.00 80 1016.4
20260905185959 79 67 4.0 11.0 0.00 0.00 0.00 79 1016.4
20260905185500 79 52 3.0 11.0 0.00 0.00 0.00 79 1016.4
20260905184456 79 33 3.0 12.0 0.00 0.00 0.00 78 1016.3
20260905183500 80 35 3.0 8.0 0.00 0.00 0.00 77 1016.3
20260905182956 80 47 2.0 8.0 0.00 0.00 0.00 77 1016.3
20260905182457 80 37 2.0 8.0 0.00 0.00 0.00 77 1016.3
20260905181500 80 19 3.0 10.0 0.00 0.00 0.00 77 1016.4
20260905180958 80 22 2.0 9.0 0.00 0.00 0.00 77 1016.3
20260905180458 80 26 3.0 9.0 0.00 0.00 0.00 76 1016.4
20260905180001 80 15 3.0 9.0 0.00 0.00 0.00 76 1016.3
20260905175456 80 30 2.0 9.0 0.00 0.00 0.00 77 1016.3
20260905174957 80 333 3.0 11.0 0.00 0.00 0.00 78 1016.2
20260905174456 79 31 2.0 11.0 0.00 0.00 0.00 78 1016.2
20260905173959 79 39 2.0 7.0 0.00 0.00 0.00 78 1016.3
20260905172956 79 49 3.0 8.0 0.00 0.00 0.00 80 1016.3
20260905172457 79 9 2.0 6.0 0.00 0.00 0.00 79 1016.4
20260905171959 79 22 2.0 9.0 0.00 0.00 0.00 79 1016.3
20260905171457 79 19 2.0 9.0 0.00 0.00 0.00 78 1016.3
20260905170957 79 78 2.0 11.0 0.00 0.00 0.00 78 1016.3
20260905170456 79 49 2.0 11.0 0.00 0.00 0.00 78 1016.4
20260905170001 79 28 1.0 8.0 0.00 0.00 0.00 79 1016.3
20260905164956 78 31 1.0 6.0 0.00 0.01 0.00 82 1016.5
20260905164457 78 355 1.0 5.0 0.00 0.01 0.00 81 1016.6
20260905163959 78 21 2.0 6.0 0.00 0.01 0.00 81 1016.5
20260905163457 78 34 2.0 6.0 0.00 0.01 0.00 82 1016.4
20260905162956 78 36 2.0 6.0 0.00 0.01 0.00 82 1016.4
20260905161959 77 82 1.0 4.0 0.00 0.01 0.00 84 1016.4
20260905161457 76 35 1.0 4.0 0.00 0.01 0.00 84 1016.5
20260905160957 76 28 2.0 5.0 0.00 0.01 0.00 85 1016.6
20260905160456 76 338 2.0 8.0 0.00 0.01 0.00 85 1016.5
20260905155457 76 17 3.0 11.0 0.00 0.21 0.00 86 1016.5
20260905154956 75 22 2.0 5.0 0.00 0.21 0.00 87 1016.4
20260905154457 75 18 1.0 5.0 0.00 0.21 0.00 87 1016.4
20260905153959 75 63 1.0 4.0 0.00 0.21 0.00 87 1016.4
20260905153456 75 38 1.0 4.0 0.00 0.21 0.00 88 1016.4
20260905152956 75 348 2.0 6.0 0.00 0.21 0.00 88 1016.4
20260905151959 75 58 2.0 9.0 0.00 0.21 0.00 88 1016.3
20260905151456 75 31 2.0 9.0 0.00 0.21 0.00 89 1016.2
20260905150957 74 44 2.0 9.0 0.00 0.21 0.00 89 1016.1
20260905150457 74 43 2.0 9.0 0.00 0.21 0.00 89 1016.1
20260905150001 74 115 3.0 9.0 0.00 0.21 0.00 90 1016.1
20260905145456 74 33 2.0 9.0 0.00 0.33 0.00 90 1016.0
20260905144957 74 323 3.0 9.0 0.00 0.33 0.00 91 1016.0
20260905144500 74 40 2.0 9.0 0.00 0.33 0.00 91 1015.9
20260905143957 73 24 1.0 5.0 0.00 0.33 0.00 91 1015.8
20260905143456 73 37 2.0 8.0 0.00 0.33 0.00 91 1015.7
20260905142959 73 37 2.0 8.0 0.00 0.33 0.00 91 1015.6
20260905142456 73 355 2.0 5.0 0.00 0.33 0.00 91 1015.6
20260905141957 72 104 2.0 5.0 0.00 0.33 0.00 92 1015.6
20260905141457 72 44 2.0 6.0 0.00 0.33 0.00 92 1015.6
20260905140959 72 355 3.0 9.0 0.00 0.33 0.00 92 1015.7
20260905140457 72 360 3.0 9.0 0.00 0.33 0.00 92 1015.6
20260905135959 72 355 2.0 9.0 0.00 0.33 0.00 92 1015.7
20260905135459 72 70 2.0 8.0 0.00 0.42 0.00 92 1015.5
20260905134457 72 22 2.0 8.0 0.00 0.42 0.00 92 1015.7
20260905133956 72 38 3.0 9.0 0.00 0.42 0.00 92 1015.6